RH
76 90 74 94 96 100 100 100 98 60 21 13 12 11 10 10 10 9 8 8 8 8 8 8 8 8 8 9 9 9 9 10 10 11 11 12 12 13 14 15 15 16 17
74 88 66 62 95 89 99 100 100 84 32 16 14 14 13 13 12 11 10 10 9 9 9 9 9 9 9 10 10 10 10 11 11 12 13 13 14 15 16 17 18 19 20
83 97 96 88 77 90 99 100 100 99 50 21 17 16 16 15 14 13 12 11 11 10 10 10 10 10 11 11 11 12 12 12 13 13 14 14 15 17 18 20 22 25 26
100 100 99 78 89 95 99 99 100 99 82 32 20 18 16 16 16 16 16 15 14 13 13 12 12 12 12 13 13 14 14 14 15 16 16 17 18 20 21 23 27 28 30
82 98 99 99 94 82 88 98 97 98 80 58 28 23 21 20 19 18 18 18 17 16 16 15 14 14 14 14 15 15 16 17 17 18 19 21 22 24 25 28 30 31 33
73 82 85 80 91 63 99 59 87 98 96 77 42 28 26 23 22 22 22 20 19 19 19 18 18 17 17 17 18 18 19 19 20 21 22 24 26 27 31 33 33 35 38
53 76 81 73 74 71 91 86 87 98 99 94 59 45 34 29 27 27 26 27 26 23 23 22 21 21 21 21 21 21 21 22 22 24 26 28 30 33 36 36 38 41 43
38 36 34 32 38 58 66 100 96 99 98 100 99 92 86 61 59 56 51 43 36 30 30 32 29 27 27 26 26 26 26 27 27 28 29 31 35 38 40 42 43 45 46
30 33 36 36 33 32 44 74 93 97 98 100 99 100 100 96 99 100 99 100 97 80 60 38 33 37 35 32 33 31 32 32 32 33 33 37 39 42 45 46 46 48 49
32 36 38 40 40 39 38 33 48 66 77 88 85 90 99 99 100 98 94 88 98 100 100 93 67 44 49 48 44 36 39 37 39 40 40 42 43 46 48 49 51 52 58
35 33 33 38 43 42 42 43 40 34 34 44 67 64 64 73 96 97 100 98 100 100 100 100 100 86 58 54 57 49 50 46 47 48 46 48 49 49 52 54 54 56 71
37 35 35 40 45 47 48 47 46 45 45 39 34 32 30 32 43 49 62 81 79 98 100 100 100 100 97 73 69 71 68 64 64 66 60 55 56 56 56 57 62 86 97
41 40 44 48 49 49 49 49 48 47 46 45 44 39 33 31 29 29 32 43 72 99 95 99 100 100 100 100 98 97 94 84 84 80 75 71 67 65 67 73 92 98 98
51 52 53 52 55 58 58 56 56 57 58 56 53 46 42 38 34 32 29 28 30 36 49 85 100 97 99 99 100 99 100 99 96 93 91 91 93 90 91 96 98 98 96
50 52 55 59 62 63 65 66 63 60 57 56 54 53 52 54 52 42 35 33 30 28 29 31 49 72 98 99 99 93 99 99 99 100 99 98 98 97 97 98 96 97 97
60 57 56 58 63 65 64 65 69 68 65 59 54 51 46 42 45 48 51 50 42 37 31 28 30 33 94 78 94 100 95 98 98 99 98 80 96 96 97 95 96 97 97
78 71 72 70 68 67 67 66 66 66 66 66 63 59 56 44 42 40 39 34 40 51 53 40 31 27 27 41 58 98 100 98 98 99 97 97 100 89 87 94 97 96 95
78 78 77 78 78 78 78 76 70 71 72 70 68 67 63 57 50 46 40 37 34 23 44 58 51 38 45 58 74 84 92 98 98 96 99 98 100 100 98 95 96 96 95
55 54 56 59 70 76 79 75 76 75 75 76 78 74 70 63 58 54 49 44 42 41 24 43 62 57 66 95 99 100 100 100 99 99 99 100 98 97 99 98 96 96 96
26 26 26 26 28 33 34 36 44 58 69 73 69 68 63 53 51 53 53 53 48 44 40 24 52 73 80 81 100 92 100 100 94 99 98 97 100 95 99 96 96 96 94
22 21 22 24 24 23 19 17 20 23 25 28 52 57 40 36 41 44 45 40 38 32 30 28 36 76 84 100 100 100 96 86 100 100 94 93 96 97 96 96 96 95 86
31 27 27 29 30 30 28 22 19 19 20 19 19 19 21 24 26 27 27 29 29 28 28 40 53 91 95 100 96 100 99 98 98 97 96 97 96 96 97 97 92 91 77
40 42 39 34 33 32 33 30 31 26 17 17 20 19 18 20 24 29 42 51 52 50 44 64 81 92 100 98 99 99 97 96 97 97 98 97 100 100 96 95 93 84 39
49 47 46 46 45 43 42 43 44 38 31 26 22 21 23 27 28 37 61 61 65 66 63 77 82 83 96 97 96 98 96 96 97 97 96 98 99 97 95 94 94 88 52
55 57 55 51 51 56 57 57 59 61 56 41 37 30 31 42 47 45 52 62 67 76 73 65 94 96 96 95 96 97 97 96 97 96 96 96 96 96 94 95 95 85 30
38 44 51 58 57 62 73 68 70 73 76 75 74 61 51 50 72 86 55 77 79 80 87 89 98 97 97 96 95 96 96 97 96 96 96 96 96 95 96 96 94 55 31
Wind_Speed
11 14 15 29 39 21 24 23 27 32 33 32 31 30 28 28 28 28 27 26 24 23 23 24 24 23 22 21 23 23 23 23 22 22 22 21 22 22 21 20 20 20 20
2 3 7 15 31 24 27 26 27 31 32 32 31 30 30 29 28 27 26 25 25 26 25 25 23 23 24 24 24 24 24 25 25 24 24 25 25 24 23 23 23 23 22
9 14 8 7 27 30 20 24 28 32 33 33 33 32 32 30 29 26 26 26 27 26 24 25 25 26 26 25 26 26 26 26 27 27 27 28 27 25 26 25 25 25 26
9 3 15 13 11 6 20 21 21 31 33 35 34 32 29 27 24 23 24 25 26 26 27 27 27 28 27 27 27 28 28 29 29 29 29 29 29 28 28 28 27 27 26
9 10 12 9 5 7 7 4 16 29 32 31 31 30 29 26 26 27 28 28 27 28 28 28 29 29 29 30 30 31 31 31 31 31 29 30 30 30 29 29 29 30 30
4 5 8 7 7 7 9 8 8 15 24 25 28 28 27 27 28 28 27 27 28 28 28 28 29 30 31 31 32 32 33 33 33 33 33 32 32 32 32 31 31 32 33
11 5 3 4 5 6 3 6 7 12 9 28 26 23 25 27 28 28 28 28 28 28 27 29 30 30 31 32 33 35 36 35 35 34 34 33 34 34 35 35 34 35 34
11 10 9 6 4 6 6 10 8 11 8 14 17 26 23 26 27 28 28 29 30 30 31 33 34 34 35 36 37 37 37 37 37 37 38 37 38 38 37 37 37 37 37
12 10 9 8 7 5 8 11 14 15 14 13 14 17 27 32 33 27 31 30 32 32 35 38 39 39 39 39 40 40 38 39 39 40 40 41 41 41 40 41 40 40 41
9 10 10 11 9 9 8 9 13 16 20 21 20 23 21 28 38 33 34 38 34 31 37 41 43 43 42 41 41 43 40 40 41 41 42 43 43 44 44 44 44 43 43
8 9 11 10 8 12 13 13 13 14 16 19 24 26 27 27 28 32 34 35 36 36 40 38 44 47 43 43 43 45 41 43 44 44 45 47 47 48 49 50 51 51 46
13 14 11 9 9 11 14 16 19 19 20 22 24 24 25 27 31 33 34 35 38 41 37 37 36 48 48 45 47 46 45 48 46 46 47 48 50 51 52 53 50 52 47
9 9 9 7 5 8 9 10 13 17 22 24 26 29 31 31 31 32 33 36 40 37 42 44 36 30 40 52 52 52 49 50 49 48 49 51 52 53 53 53 53 49 45
6 5 5 6 6 6 6 7 6 6 8 10 13 17 23 28 32 34 35 36 35 38 40 43 42 42 37 36 36 41 51 54 57 51 51 53 56 56 55 53 45 44 38
15 13 11 11 11 11 12 11 11 12 13 13 13 14 15 17 19 24 29 32 35 37 37 37 41 40 44 39 36 37 47 33 40 49 53 50 61 55 42 40 40 38 30
17 19 21 21 21 22 22 21 18 17 18 18 18 18 19 18 18 20 24 27 29 32 37 37 35 37 41 44 39 38 41 40 38 29 28 33 32 35 37 34 36 36 25
18 22 24 27 29 30 32 32 31 29 28 27 25 25 26 23 22 23 24 25 28 32 32 37 38 37 36 40 43 41 33 35 34 32 32 35 32 37 37 34 36 29 25
31 32 33 33 34 35 37 41 40 39 39 36 36 35 38 36 33 32 31 31 32 32 33 35 38 37 33 32 35 40 45 35 33 32 37 34 38 33 32 33 34 29 25
47 47 47 48 48 47 47 50 50 49 49 47 45 45 46 47 45 41 39 39 41 38 37 37 37 39 36 26 27 30 29 34 30 31 34 37 33 33 35 36 33 26 22
58 59 61 60 61 61 60 60 60 60 59 58 57 55 54 54 52 49 49 48 45 45 44 39 40 38 34 33 34 31 34 36 35 34 35 33 35 37 38 36 27 23 23
50 53 56 58 57 57 59 61 62 60 58 59 65 66 61 57 56 57 56 50 49 48 45 45 42 38 35 36 37 37 34 32 31 34 35 36 37 36 37 31 25 24 23
42 40 42 43 46 50 53 55 56 55 53 53 54 53 54 55 52 50 49 44 42 41 40 39 41 37 36 36 38 40 40 34 33 35 35 33 34 37 36 29 26 24 23
35 35 35 34 36 39 42 46 49 51 50 48 47 47 47 48 50 49 46 44 42 42 42 39 38 37 38 38 40 37 34 33 37 38 34 36 38 40 36 28 26 23 26
29 31 35 39 40 39 38 39 42 43 45 46 45 42 43 43 43 48 48 47 45 46 42 39 39 36 36 38 38 37 37 42 42 40 41 41 41 39 31 28 25 26 24
28 31 35 38 41 44 46 42 39 38 40 41 43 41 40 40 40 42 43 44 44 44 44 38 37 36 36 34 36 38 39 40 42 43 42 42 41 34 29 28 27 24 24
29 31 33 35 38 40 43 47 48 43 36 35 36 38 36 35 33 36 40 39 40 40 39 35 36 34 37 35 32 34 39 42 45 43 43 40 33 30 29 29 26 24 24
Wind_Direction
268 251 257 246 222 197 217 217 227 218 216 215 213 211 211 212 214 217 219 220 223 223 226 228 230 232 235 237 237 237 241 246 248 249 253 256 258 260 257 257 259 258 264
128 357 264 274 239 243 257 199 205 220 218 217 215 214 214 215 215 217 220 223 227 229 230 233 236 239 241 242 246 249 251 251 251 253 254 255 258 260 264 265 265 269 272
74 59 23 341 269 286 216 206 195 207 217 216 216 217 219 218 218 220 222 225 228 232 234 236 238 241 243 246 248 249 249 253 255 255 256 259 262 266 266 267 268 271 272
42 51 61 47 336 267 230 237 210 208 209 213 214 216 221 225 227 228 227 228 229 231 233 236 238 240 243 245 249 251 253 254 255 255 257 260 261 260 261 262 266 266 269
64 49 50 60 57 324 3 27 222 210 214 213 216 216 218 218 221 225 228 230 231 234 235 238 240 243 245 246 247 248 250 253 255 258 259 260 262 263 265 265 267 269 271
69 23 51 55 27 354 1 335 221 197 211 219 219 222 222 220 221 225 231 236 239 239 240 242 245 246 247 249 251 251 252 254 255 256 257 260 262 264 265 267 265 267 269
40 7 22 357 322 359 310 318 332 289 232 213 217 232 230 230 229 229 231 234 239 242 243 247 249 250 251 251 252 253 254 255 256 257 258 258 260 261 261 261 263 265 267
37 26 20 12 336 277 264 238 251 289 280 238 228 219 240 232 233 237 239 242 243 244 244 244 243 243 245 246 247 247 248 249 250 251 253 254 255 257 259 261 262 262 263
352 349 338 324 322 326 274 255 242 247 261 268 269 259 233 227 238 237 242 247 250 253 253 251 249 249 248 247 246 247 248 249 250 250 252 254 255 256 257 259 259 260 261
357 347 339 302 283 279 282 282 271 262 253 250 253 260 261 247 240 244 243 250 254 256 254 254 255 254 253 250 251 253 251 251 253 254 254 255 256 256 257 257 257 254 253
338 334 324 305 276 266 265 266 262 260 262 260 257 256 258 259 257 250 257 258 257 251 250 255 257 249 249 252 255 254 251 253 254 255 256 257 259 260 260 259 257 255 259
321 322 321 311 293 277 274 271 270 267 262 262 266 268 266 264 259 258 263 264 262 261 259 263 259 256 251 247 253 254 253 253 254 256 257 258 260 261 263 264 262 261 274
323 322 318 315 277 259 263 264 267 267 269 269 265 262 262 264 267 268 266 263 264 262 264 260 262 265 254 252 244 242 246 253 253 254 257 259 261 263 262 261 265 275 262
289 266 232 239 230 206 214 239 257 270 289 288 286 279 273 269 265 266 267 268 268 270 268 260 259 255 262 256 264 265 257 257 252 250 254 258 260 260 262 277 275 268 241
277 269 257 245 238 238 240 246 255 258 262 271 284 297 293 287 286 281 275 274 273 271 272 274 266 268 264 270 271 275 271 270 267 263 268 271 267 269 273 272 270 243 239
262 260 261 261 255 253 254 257 259 260 264 268 271 276 284 294 298 295 290 285 282 280 275 272 270 267 258 267 261 264 268 265 269 258 278 294 286 270 273 265 251 244 241
279 269 263 262 262 263 266 264 264 265 267 270 273 276 277 275 283 293 300 304 297 287 287 281 273 271 272 263 257 258 263 263 261 270 280 270 266 266 259 252 240 238 242
288 282 283 278 280 275 273 272 269 272 274 273 274 277 281 282 282 285 290 296 304 308 289 282 282 275 268 268 262 256 253 264 264 267 265 262 258 255 253 239 237 236 239
301 298 293 290 283 282 277 277 271 271 273 274 276 276 278 281 283 285 288 292 293 298 305 289 280 281 273 261 268 252 255 251 255 254 256 261 256 250 238 234 230 234 242
308 304 299 297 295 291 286 284 282 279 276 275 274 276 278 283 285 286 285 286 291 294 295 296 282 271 264 268 251 255 246 250 253 257 252 255 244 241 237 230 230 236 245
305 302 301 299 296 292 288 285 284 283 280 277 275 277 281 281 283 284 283 284 285 289 292 292 281 269 259 252 247 252 247 244 248 245 250 244 242 236 235 228 229 237 244
305 299 300 302 302 301 298 292 289 287 285 281 276 274 273 272 272 271 272 273 274 274 277 274 273 265 259 252 257 247 251 239 239 239 243 245 237 235 229 228 232 236 241
322 326 325 321 317 311 306 301 298 292 286 284 282 278 275 271 264 261 259 258 259 261 265 262 263 260 251 256 255 249 240 234 232 238 239 232 233 233 231 225 229 231 242
333 336 338 338 338 336 327 315 305 296 290 286 281 278 275 267 262 257 257 258 257 258 259 257 259 266 261 259 252 242 232 230 232 230 231 230 230 227 221 223 226 234 248
332 340 341 342 341 341 343 340 331 312 298 287 279 273 273 269 260 254 257 258 259 260 258 260 260 262 263 260 254 245 237 235 230 231 230 233 230 225 223 224 228 236 252
329 332 336 339 340 337 338 342 341 332 318 301 289 276 268 268 262 263 260 257 259 261 258 254 252 257 260 254 245 243 237 231 233 234 232 231 224 222 224 225 226 239 254